Location: Kershaw
(34.5481°N, 80.5823°W)
Time: 16:33:09
(UTC+00:00)

Courier 1B Rocket - Pass Details

Date: 05 October 2022
Orbit: 920 x 1202 km, 28.2° (Epoch: 08 December)

Event Time Altitude Azimuth Distance (km) Brightness Sun altitude
Rises 20:44:11 0° 207° (SSW) 3,984 9.0 26.1°
Reaches altitude 10° 20:48:22 10° 187° (S) 2,972 8.1 25.3°
Maximum altitude 20:52:22 15° 153° (SSE) 2,527 7.3 24.6°
Drops below altitude 10° 20:56:14 10° 119° (ESE) 2,859 7.2 23.9°
Sets 21:00:06 0° 98° (E) 3,753 7.6 23.2°
